FW0642 Boston MA US current weather conditions

sailwx.info

Wind from 286

Air temperature -4.4° C
Dewpoint -7.7° C

Last reported at 2019-Dec-12 23:02 UTC.
Time now 2019-Dec-12 23:52 UTC

Location: N 42°17' W 071°08'.
View on Google Maps.

See reports from other nearby stations

  
Tides and Currents Weather Stations Pressure Air Temp Water Temp Dewpoint Dewpoint Depression Visibility Wind Speed Wind Dir Waves Ship Positions
date/time (UTC)wind fromknots sea level pressurealtimeterstation pressurevisibilityair tempwater tempwave heightnotes
2019-Dec-12 23:02 286 -4.4
2019-Dec-12 22:47 286 -4.4
2019-Dec-12 22:32 286 -4.4
2019-Dec-12 22:16 286 -3.9
2019-Dec-12 22:02 286 -3.9
2019-Dec-12 21:46 286 -3.9
2019-Dec-12 21:33 286 -3.9
2019-Dec-12 21:17 286 -3.3
2019-Dec-12 21:02 286 -3.3
2019-Dec-12 20:48 283 -2.8
2019-Dec-12 20:31 283 0 gusting 2 -2.8
2019-Dec-12 20:17 241 -2.8
2019-Dec-12 20:01 261 -2.8
2019-Dec-12 19:48 262 0 gusting 3 -2.8
2019-Dec-12 19:31 272 -2.2
2019-Dec-12 19:16 273 0 gusting 4 -2.2
2019-Dec-12 19:01 295 1 gusting 6 -2.2
2019-Dec-12 18:47 228 1 gusting 4 -2.2
2019-Dec-12 18:32 252 -2.8
2019-Dec-12 18:17 267 0 gusting 3 -2.8
2019-Dec-12 18:03 284 1 gusting 6 -2.8
2019-Dec-12 17:49 267 1 gusting 4 -2.8
2019-Dec-12 17:32 199 -2.2
2019-Dec-12 17:17 265 1 gusting 6 -2.2
2019-Dec-12 17:02 348 0 gusting 5 -1.7
2019-Dec-12 16:47 281 1 gusting 9 -1.7
2019-Dec-12 16:32 282 0 gusting 3 -1.7
2019-Dec-12 16:16 292 1 gusting 6 -2.2
2019-Dec-12 16:02 260 2 gusting 7 -2.2
2019-Dec-12 15:46 201 0 gusting 3 -2.2
2019-Dec-12 15:31 036 0 gusting 6 -2.8
2019-Dec-12 15:16 261 1 gusting 6 -2.8
2019-Dec-12 15:01 049 0 gusting 6 -2.8
2019-Dec-12 14:46 258 1 gusting 4 -2.8
2019-Dec-12 14:31 290 2 gusting 7 -3.3
2019-Dec-12 14:15 260 0 gusting 6 -3.3
2019-Dec-12 14:00 074 1 gusting 4 -3.9
2019-Dec-12 13:45 288 0 gusting 3 -5.0
2019-Dec-12 13:31 273 0 gusting 3 -5.6
2019-Dec-12 13:15 267 0 gusting 3 -6.7
2019-Dec-12 13:00 277 -7.2
2019-Dec-12 12:45 277 -7.2
2019-Dec-12 12:30 277 -7.2
2019-Dec-12 12:15 278 -7.2
2019-Dec-12 12:00 277 -7.2
2019-Dec-12 11:48 274 -7.2
2019-Dec-12 11:32 261 -6.7
2019-Dec-12 11:18 263 0 gusting 5 -6.7
2019-Dec-12 11:02 306 1 gusting 5 -6.1
2019-Dec-12 10:46 298 1 gusting 6 -6.1
2019-Dec-12 10:31 315 1 gusting 3 -6.1
2019-Dec-12 10:16 206 0 gusting 4 -6.1
2019-Dec-12 10:02 285 0 gusting 6 -6.1
2019-Dec-12 09:48 303 0 gusting 6 -6.1
2019-Dec-12 09:31 279 -6.1
2019-Dec-12 09:17 253 0 gusting 3 -5.6
2019-Dec-12 09:01 222 1 gusting 3 -5.6
2019-Dec-12 08:46 261 0 gusting 6 -5.6
2019-Dec-12 08:30 221 0 gusting 4 -5.0
2019-Dec-12 08:16 284 0 gusting 6 -5.0
2019-Dec-12 08:00 246 0 gusting 6 -5.0
2019-Dec-12 07:45 304 3 gusting 13 -5.0
2019-Dec-12 07:30 327 4 gusting 9 -4.4
2019-Dec-12 07:00 278 0 gusting 9 -4.4
2019-Dec-12 06:45 238 0 gusting 9 -3.9
2019-Dec-12 06:30 223 0 gusting 8 -3.9
2019-Dec-12 06:17 296 2 gusting 6 -3.9
2019-Dec-12 06:02 295 -3.9
2019-Dec-12 05:48 171 0 gusting 6 -4.4
2019-Dec-12 05:32 277 0 gusting 6 -4.4
2019-Dec-12 05:17 288 -4.4
2019-Dec-12 05:02 276 1 gusting 5 -4.4
2019-Dec-12 04:46 270 0 gusting 5 -3.9
2019-Dec-12 04:33 269 -3.9
2019-Dec-12 04:17 225 -3.9
2019-Dec-12 04:01 261 -3.9
2019-Dec-12 03:46 250 1 gusting 3 -3.9
2019-Dec-12 03:32 291 0 gusting 5 -3.9
2019-Dec-12 03:16 267 0 gusting 6 -4.4
2019-Dec-12 03:01 242 -4.4
2019-Dec-12 02:45 237 -5.0
2019-Dec-12 02:31 237 -5.0
2019-Dec-12 02:16 236 -5.0
2019-Dec-12 02:01 234 -5.0
2019-Dec-12 01:45 234 -4.4
2019-Dec-12 01:30 234 -4.4
2019-Dec-12 01:15 234 -4.4
2019-Dec-12 01:00 234 -4.4
2019-Dec-12 00:45 234 -4.4
2019-Dec-12 00:30 234 -3.9
2019-Dec-12 00:15 230 -3.9
2019-Dec-12 00:00 234 -3.9
2019-Dec-11 23:45 233 -3.9
2019-Dec-11 23:30 239 -3.9
2019-Dec-11 23:15 241 -3.9
2019-Dec-11 23:00 241 -3.9
2019-Dec-11 22:47 241 -3.9
2019-Dec-11 22:31 252 -3.3
2019-Dec-11 22:17 254 -3.3
2019-Dec-11 22:03 254 -3.3
2019-Dec-11 21:47 254 -2.8
2019-Dec-11 21:33 254 -2.2
2019-Dec-11 21:17 254 -2.2
2019-Dec-11 21:02 260 0 gusting 2 -1.7
2019-Dec-11 20:47 256 0 gusting 2 -1.7
2019-Dec-11 20:32 253 0 gusting 3 -1.1
2019-Dec-11 20:17 230 1 gusting 3 -0.6
2019-Dec-11 20:01 264 -1.1
2019-Dec-11 19:46 304 -0.6
2019-Dec-11 19:32 241 0 gusting 3 -0.6
2019-Dec-11 19:16 305 1 gusting 4 -0.6
2019-Dec-11 19:01 254 0 gusting 4 -0.6
2019-Dec-11 18:46 255 1 gusting 6 -0.6
2019-Dec-11 18:32 291 0 gusting 4 -0.6
2019-Dec-11 18:16 288 -0.6
2019-Dec-11 18:02 311 0 gusting 4 -0.6
2019-Dec-11 17:46 242 0 gusting 3 -0.6
2019-Dec-11 17:31 203 -0.6
2019-Dec-11 17:16 230 -0.6
2019-Dec-11 17:01 216 -0.6
2019-Dec-11 16:46 217 -1.1
2019-Dec-11 16:31 217 -1.1
2019-Dec-11 16:16 266 -1.7
2019-Dec-11 16:01 266 -1.7
2019-Dec-11 15:45 266 -1.7
2019-Dec-11 15:30 233 -1.7
2019-Dec-11 15:16 244 -1.7
2019-Dec-11 15:00 243 -1.7
2019-Dec-11 14:46 256 -1.1
2019-Dec-11 14:31 256 -1.1
2019-Dec-11 14:15 256 -1.7
2019-Dec-11 14:01 256 -1.7
2019-Dec-11 13:47 256 -1.7
2019-Dec-11 13:30 256 -1.7
2019-Dec-11 13:16 256 -1.7
2019-Dec-11 13:00 256 -1.7
2019-Dec-11 12:46 256 -2.2
2019-Dec-11 12:30 256 -2.2
2019-Dec-11 12:15 256 0 gusting 7 -2.2
2019-Dec-11 12:00 281 0 gusting 6 -1.7
2019-Dec-11 11:45 284 -1.7
2019-Dec-11 11:30 289 -1.1
2019-Dec-11 11:15 284 -1.1
2019-Dec-11 11:01 304 -1.1
2019-Dec-11 10:49 005 -1.1
2019-Dec-11 10:34 005 -1.1
2019-Dec-11 10:19 009 -1.1
2019-Dec-11 10:02 337 -1.1
2019-Dec-11 09:47 011 0 gusting 4 -1.1
2019-Dec-11 09:32 330 -0.6
2019-Dec-11 09:17 265 0 gusting 4 -0.6
2019-Dec-11 09:02 011 0 gusting 5 -0.6
2019-Dec-11 08:47 005 0 gusting 5 -0.6
2019-Dec-11 08:32 336 1 gusting 9 -0.0
2019-Dec-11 08:17 017 1 gusting 5 0.6
2019-Dec-11 08:01 320 0 gusting 6 0.6
2019-Dec-11 07:47 009 1 gusting 8 1.1
2019-Dec-11 07:31 012 2 gusting 6 1.7
2019-Dec-11 07:16 017 2.2
2019-Dec-11 07:01 284 2.2
2019-Dec-11 06:46 268 2.2
2019-Dec-11 06:31 277 2.8
2019-Dec-11 06:15 281 0 gusting 4 2.8
2019-Dec-11 06:00 298 0 gusting 5 2.8
2019-Dec-11 05:46 324 3.3
2019-Dec-11 05:30 279 0 gusting 3 3.3
2019-Dec-11 05:15 279 0 gusting 5 3.3
2019-Dec-11 05:00 286 0 gusting 6 3.9
2019-Dec-11 04:45 297 3.9
2019-Dec-11 04:30 306 1 gusting 9 3.9
2019-Dec-11 04:18 306 0 gusting 6 4.4
2019-Dec-11 04:15 307 4.4
2019-Dec-11 04:05 263 4.4
2019-Dec-11 03:47 281 1 gusting 5 5.0
2019-Dec-11 03:32 269 0 gusting 4 5.0
2019-Dec-11 03:19 252 0 gusting 4 5.6
2019-Dec-11 03:01 259 5.6
2019-Dec-11 02:49 283 1 gusting 6 6.1
2019-Dec-11 02:32 281 0 gusting 6 6.1
2019-Dec-11 02:17 319 1 gusting 8 6.7
2019-Dec-11 02:02 258 0 gusting 8 6.7
2019-Dec-11 01:46 295 0 gusting 2 6.7
2019-Dec-11 01:31 278 1 gusting 6 7.2
2019-Dec-11 01:17 304 1 gusting 6 7.2
2019-Dec-11 01:01 290 1 gusting 7 7.8
2019-Dec-11 00:46 288 1 gusting 9 8.3
2019-Dec-11 00:30 343 2 gusting 8 8.9
2019-Dec-11 00:15 298 3 gusting 17 10.6
2019-Dec-11 00:00 168 1 gusting 5 11.7
2019-Dec-10 23:45 183 11.7
2019-Dec-10 23:30 254 11.7
2019-Dec-10 23:15 064 11.7
2019-Dec-10 23:00 330 11.7